User: anonymous   Login
Location: Oshawa
(43.9000°N, 78.8670°W)
Time: 07:08:21
(UTC-05:00)
Language:

Envisat - Orbit

View from above orbital plane
View from above orbital plane
View from above satellite
View from above satellite

Ground track
Ground track

The orbit data is extracted from the following two-line orbital elements,

1 27386U 02009A   14327.16580587  .00000196  00000-0  79379-4 0  6615
2 27386 098.3653 028.4617 0000878 074.3489 285.7812 14.37755971666424
Epoch (UTC): 23 November 2014 03:58:45
Eccentricity: 0.0000878
inclination: 98.3653°
perigee height: 765 km
apogee height: 766 km
right ascension of ascending node: 28.4617°
argument of perigee: 74.3489°
revolutions per day: 14.37755971
mean anomaly at epoch: 285.7812°
orbit number at epoch: 66642

The dashed part of the orbit path shows where the satellite is in the earth's shadow,  

DLR